Location: Cahas Mountain Overlook
(37.0833°N, 80.1000°W)
Time: 00:20:10
(UTC-05:00)

Altair - Visible Passes

Search period start: 29 November 2023 00:00
Search period end: 09 December 2023 00:00
Orbit: 1501 x 1682 km, 47.2° (Epoch: 28 November)

Date Brightness Start Highest point End Pass type
(mag) Time Alt. Az. Time Alt. Az. Time Alt. Az.
29 Nov 9.9 18:55:13 10° W 18:59:45 15° WSW 19:04:21 10° SSW visible
30 Nov 9.9 18:29:24 10° W 18:34:42 17° SW 18:40:03 10° SSW visible
01 Dec 9.9 18:03:44 10° W 18:09:38 19° SW 18:15:36 10° SSW visible
02 Dec 9.9 17:38:08 10° W 17:44:35 22° SW 17:51:02 10° S visible
03 Dec 9.7 06:46:37 10° S 06:54:42 30° SE 07:02:33 10° ENE visible
04 Dec 9.7 06:21:50 10° S 06:29:35 27° SE 06:37:08 10° ENE visible
05 Dec 9.8 05:57:06 10° S 06:04:29 24° SE 06:11:40 10° ENE visible
06 Dec 9.8 05:32:26 10° S 05:39:23 22° SE 05:46:09 10° E visible
07 Dec 9.8 05:07:52 10° SSE 05:14:17 19° SE 05:20:33 10° E visible
08 Dec 9.9 04:43:23 10° SSE 04:49:11 17° SE 04:54:52 10° E visible
08 Dec 8.1 06:42:57 10° SW 06:52:43 65° SE 07:02:07 10° ENE visible
